Regional Weather Roundup
Issued by NWS Kansas City/Pleasant Hill, MO

Home | Current Version | Previous Version | Graphics & Text | Print | Product List | Glossary Off
Versions: 1 2 3 4 5 6 7 8 9 10 11 12 13 14 15 16 17 18 19 20 21 22 23 24 25 26 27 28 29 30 31 32 33 34 35 36 37 38 39 40 41 42 43 44 45 46 47 48 49 50

000
ASUS43 KEAX 261004
RWREAX

WEATHER ROUNDUP FOR EASTERN KANSAS AND NORTHWEST MISSOURI
NATIONAL WEATHER SERVICE KANSAS CITY/PLEASANT HILL MO
500 AM CDT SAT JUL 26 2014

KSZ040-057-103>105-MOZ028-029-037-043-261100-
...KANSAS CITY METROPOLITAN AREA...

CITY           SKY/WX    TMP DP  RH WIND       PRES   REMARKS
K.C. INTL      MOCLDY    79  71  76 SW9       29.81R
K.C. DOWNTOWN  PTCLDY    83  70  64 SW10G20   29.80R
LEES SUMMIT    CLEAR     79  71  76 SW12      29.84R
OLATHE - IXD   CLEAR     79  71  76 S15       29.83S
OLATHE - OJC   CLEAR     80  70  71 SW14G25   29.82S
LAWRENCE       PTCLDY    82  69  64 SW6       29.80S

$$

MOZ001>008-011>017-020>025-030>033-038>040-044>046-053-054-261100-
...NORTHERN AND CENTRAL MISSOURI...

CITY           SKY/WX    TMP DP  RH WIND       PRES   REMARKS
ST. JOSEPH     PTCLDY    73  71  93 CALM      29.80S
MOSBY          SUNNY     81  70  69 CALM      29.81R
WHITEMAN AFB   CLEAR     77  64  65 SW13      29.84R
CLINTON        CLEAR     79  73  83 SW9       29.86S
SEDALIA        CLEAR     79  71  76 SW16G22   29.86R
WARSAW         NOT AVBL
MARSHALL       CLEAR     79  73  83 SW7       29.84R
CHILLICOTHE      N/A     74  72  93 CALM      29.83R
KIRKSVILLE     CLEAR     75  71  87 SW6       29.83R

$$

MOZ041-047>049-056>058-063>065-088>090-097-261100-
...EASTERN AND SOUTHERN MISSOURI...

CITY           SKY/WX    TMP DP  RH WIND       PRES   REMARKS
ST. LOUIS INTL MOCLDY    73  65  75 S6        29.89S
SPIRIT OF STL  MOCLDY    72  67  84 CALM      29.87S
COLUMBIA       CLEAR     73  71  93 S7        29.86S
JEFFERSON CITY CLEAR     75  70  84 SE3       29.86R
HANNIBAL       CLEAR     73  70  88 S9        29.84R
ROLLA          PTCLDY    73  69  87 SW13      29.89S
LEBANON        MOCLDY    75  70  83 SW6       29.93R
OSAGE BEACH    MOCLDY    73  70  88 SW7       29.88S
SPRINGFIELD    MOCLDY    74  71  91 S12       29.93R
BRANSON        CLEAR     68  66  94 CALM      29.98R FOG
NEVADA         PTCLDY    77  72  83 SW9       29.89
JOPLIN         CLEAR     77  71  82 S14       29.91R
WEST PLAINS    CLEAR     70  68  93 S5        29.97S

$$

IAZ060-094-KSZ022-034>040-054-083-096-NEZ052-066-093-261100-
...KANSAS...SOUTHEAST NEBRASKA AND IOWA...

CITY           SKY/WX    TMP DP  RH WIND       PRES   REMARKS
TOPEKA         MOCLDY    84  69  60 SW6G18    29.79S
MANHATTAN      MOCLDY    84  64  50 SW14      29.77S
EMPORIA        MOCLDY    81  66  60 SW15      29.83F
CHANUTE        PTCLDY    76  72  87 S10       29.87S
WICHITA        MOCLDY    75  65  70 S9        29.86S
OMAHA          MOCLDY    74  70  87 SE5       29.80F
LINCOLN        CLOUDY    77  73  87 E6        29.80S
FALLS CITY     MOCLDY    75  71  87 E3        29.78F
LAMONI         PTCLDY    72  71  97 CALM      29.81R
DES MOINES     MOCLDY    71  68  90 NE6       29.80R

$$



USA.gov is the U.S. government's official web portal to all federal, state and local government web resources and services.